STARLINK-4593 (53633 NORAD) Tracking and Keplerian Element Data

This shows tracking and keplerian element data for the satellite.

Feedback or suggestion? Click here.




ElementValue
Catalog53633
NameSTARLINK-4593
Epoch Orbit130
Epoch Day324.91667824
Epoch Year2022
RAAN232.8157
Inclination53.2176
Eccentricity0.0001509
Argument of Perigee52.0681
Mean Anonmoly237.1998
Mean Motion15.21861966
Decay Rate-0.0114808
L11 53633U 22104AX 22324.91667824 -.01148080 00000+0 -54040-1 0 9992
L22 53633 53.2176 232.8157 0001509 52.0681 237.1998 15.21861966 1309



Live tracking and technical data element details for STARLINK-4593 (NORAD 53633). STARLINK-4593 can be tracked NOW for your location showing map with azimuth and elevation plus other details from your city location.







IsCatalogInMostPopularTable: catalog: 53633, numindb: 3
Update: records affected: 1



GetName: 53633 STARLINK-4593

Hit Count: updated at: Thu, 08 Dec 2022 20:55:04 GMT